| time (UTC) | temp C | wind direction | speed KPH | gust KPH | rain 1hr cm | rain 24hr cm | rain mn cm | humidity % | barometer mb |
| 20260507093053 | -2 | 345 | 1.6 | 4.8 | 0.00 | 0.00 | 0.00 | 81 | 1013.4 |
| 20260507091552 | -2 | 181 | 1.6 | 4.8 | 0.00 | 0.00 | 0.00 | 81 | 1013.6 |
| 20260507090051 | -2 | 181 | 0.0 | 1.6 | 0.00 | 0.00 | 0.00 | 79 | 1013.8 |
| 20260507084553 | -2 | 0 | 0.0 | 1.6 | 0.00 | 0.00 | 0.00 | 80 | 1014.0 |
| 20260507083051 | -2 | 181 | 0.0 | 1.6 | 0.00 | 0.00 | 0.00 | 78 | 1014.0 |
| 20260507081556 | -2 | 181 | 0.0 | 3.2 | 0.00 | 0.00 | 0.00 | 77 | 1014.0 |
| 20260507080103 | -2 | 0 | 0.0 | 0.0 | 0.00 | 0.00 | 0.00 | 77 | 1014.1 |
| 20260507074610 | -2 | 0 | 0.0 | 0.0 | 0.00 | 0.00 | 0.00 | 76 | 1014.2 |
| 20260507073055 | -1 | 0 | 0.0 | 0.0 | 0.00 | 0.00 | 0.00 | 77 | 1014.2 |
| 20260507071556 | -1 | 181 | 1.6 | 3.2 | 0.00 | 0.00 | 0.00 | 80 | 1014.4 |
| 20260507070116 | -1 | 0 | 0.0 | 1.6 | 0.00 | 0.00 | 0.00 | 80 | 1014.6 |
| 20260507064607 | -1 | 56 | 1.6 | 4.8 | 0.00 | 0.00 | 0.00 | 76 | 1014.6 |
| 20260507063100 | -1 | 51 | 1.6 | 3.2 | 0.00 | 0.00 | 0.00 | 74 | 1015.0 |
| 20260507061559 | -1 | 0 | 0.0 | 1.6 | 0.00 | 0.00 | 0.00 | 73 | 1015.2 |
| 20260507054557 | -1 | 32 | 0.0 | 0.0 | 0.00 | 0.00 | 0.00 | 74 | 1015.5 |
| 20260507053055 | 0 | 0 | 0.0 | 1.6 | 0.00 | 0.00 | 0.00 | 72 | 1015.8 |
| 20260507051555 | 0 | 21 | 1.6 | 3.2 | 0.00 | 0.00 | 0.00 | 71 | 1015.8 |
| 20260507050058 | 0 | 21 | 1.6 | 3.2 | 0.00 | 0.00 | 0.00 | 70 | 1016.1 |
| 20260507044555 | 0 | 21 | 1.6 | 3.2 | 0.00 | 0.00 | 0.00 | 69 | 1016.4 |
| 20260507043053 | 0 | 21 | 1.6 | 1.6 | 0.00 | 0.00 | 0.00 | 67 | 1016.5 |
| 20260507041552 | 1 | 21 | 1.6 | 3.2 | 0.00 | 0.00 | 0.00 | 66 | 1016.9 |
| 20260507040058 | 1 | 21 | 3.2 | 4.8 | 0.00 | 0.00 | 0.00 | 66 | 1017.1 |
| 20260507034550 | 2 | 0 | 0.0 | 1.6 | 0.00 | 0.00 | 0.00 | 63 | 1017.1 |
| 20260507033101 | 2 | 9 | 1.6 | 3.2 | 0.00 | 0.00 | 0.00 | 62 | 1017.1 |
| 20260507031609 | 3 | 0 | 0.0 | 1.6 | 0.00 | 0.00 | 0.00 | 60 | 1017.0 |
| 20260507030054 | 3 | 9 | 1.6 | 3.2 | 0.00 | 0.00 | 0.00 | 58 | 1017.2 |
| 20260507024554 | 5 | 352 | 1.6 | 4.8 | 0.00 | 0.00 | 0.00 | 54 | 1017.0 |
| 20260507023054 | 6 | 0 | 0.0 | 0.0 | 0.00 | 0.00 | 0.00 | 52 | 1017.2 |
| 20260507021556 | 7 | 0 | 0.0 | 0.0 | 0.00 | 0.00 | 0.00 | 48 | 1017.3 |
| 20260507020053 | 8 | 0 | 1.6 | 4.8 | 0.00 | 0.00 | 0.00 | 46 | 1017.4 |
| 20260507014555 | 10 | 328 | 0.0 | 1.6 | 0.00 | 0.00 | 0.00 | 39 | 1017.4 |
| 20260507013108 | 12 | 328 | 6.4 | 8.0 | 0.00 | 0.00 | 0.00 | 32 | 1017.4 |
| 20260507011550 | 13 | 309 | 4.8 | 9.7 | 0.00 | 0.00 | 0.00 | 31 | 1017.3 |
| 20260507004555 | 13 | 231 | 8.0 | 12.9 | 0.00 | 0.00 | 0.00 | 32 | 1017.5 |
| 20260507003053 | 13 | 264 | 9.7 | 19.3 | 0.00 | 0.00 | 0.00 | 30 | 1017.7 |
| 20260507001555 | 13 | 276 | 14.5 | 24.1 | 0.00 | 0.00 | 0.00 | 32 | 1017.8 |
| 20260507000051 | 13 | 310 | 14.5 | 24.1 | 0.00 | 0.00 | 0.00 | 28 | 1018.0 |
| 20260506234553 | 13 | 297 | 9.7 | 24.1 | 0.00 | 0.00 | 0.00 | 30 | 1018.1 |
| 20260506233106 | 13 | 270 | 6.4 | 22.5 | 0.00 | 0.00 | 0.00 | 32 | 1018.3 |
| 20260506231551 | 13 | 266 | 11.3 | 20.9 | 0.00 | 0.00 | 0.00 | 29 | 1018.3 |
| 20260506230103 | 13 | 259 | 9.7 | 25.7 | 0.00 | 0.00 | 0.00 | 30 | 1018.3 |
| 20260506224553 | 14 | 305 | 6.4 | 16.1 | 0.00 | 0.00 | 0.00 | 31 | 1018.4 |
| 20260506223053 | 14 | 266 | 8.0 | 25.7 | 0.00 | 0.00 | 0.00 | 29 | 1018.6 |
| 20260506221557 | 13 | 260 | 3.2 | 17.7 | 0.00 | 0.00 | 0.00 | 31 | 1018.8 |
| 20260506220059 | 12 | 285 | 17.7 | 27.4 | 0.00 | 0.00 | 0.00 | 29 | 1019.0 |
| 20260506214600 | 12 | 289 | 14.5 | 29.0 | 0.00 | 0.00 | 0.00 | 30 | 1019.3 |
| 20260506213054 | 13 | 280 | 12.9 | 29.0 | 0.00 | 0.00 | 0.00 | 31 | 1019.4 |
| 20260506211601 | 13 | 309 | 12.9 | 30.6 | 0.00 | 0.00 | 0.00 | 29 | 1019.7 |
| 20260506210052 | 13 | 272 | 9.7 | 32.2 | 0.00 | 0.00 | 0.00 | 32 | 1019.9 |
| 20260506204556 | 13 | 259 | 8.0 | 22.5 | 0.00 | 0.00 | 0.00 | 32 | 1020.1 |
| 20260506203055 | 13 | 310 | 11.3 | 19.3 | 0.00 | 0.00 | 0.00 | 30 | 1020.2 |
| 20260506201551 | 13 | 264 | 8.0 | 24.1 | 0.00 | 0.00 | 0.00 | 30 | 1020.4 |
| 20260506200051 | 12 | 359 | 14.5 | 27.4 | 0.00 | 0.00 | 0.00 | 32 | 1020.6 |
| 20260506194607 | 12 | 245 | 8.0 | 19.3 | 0.00 | 0.00 | 0.00 | 34 | 1020.9 |
| 20260506193058 | 12 | 283 | 12.9 | 30.6 | 0.00 | 0.00 | 0.00 | 31 | 1020.8 |
| 20260506191604 | 12 | 248 | 16.1 | 27.4 | 0.00 | 0.00 | 0.00 | 32 | 1021.1 |
| 20260506184559 | 12 | 253 | 11.3 | 27.4 | 0.00 | 0.00 | 0.00 | 34 | 1021.3 |
| 20260506183053 | 12 | 233 | 8.0 | 19.3 | 0.00 | 0.00 | 0.00 | 36 | 1021.5 |
| 20260506181553 | 11 | 282 | 11.3 | 30.6 | 0.00 | 0.00 | 0.00 | 35 | 1021.9 |
| 20260506180055 | 11 | 284 | 11.3 | 19.3 | 0.00 | 0.00 | 0.00 | 35 | 1022.0 |
| 20260506174550 | 10 | 293 | 12.9 | 22.5 | 0.00 | 0.00 | 0.00 | 36 | 1022.2 |
| 20260506173107 | 10 | 256 | 11.3 | 30.6 | 0.00 | 0.00 | 0.00 | 35 | 1022.3 |
| 20260506171602 | 11 | 228 | 1.6 | 20.9 | 0.00 | 0.00 | 0.00 | 36 | 1022.2 |
| 20260506164612 | 9 | 287 | 16.1 | 35.4 | 0.00 | 0.00 | 0.00 | 36 | 1022.5 |
| 20260506163059 | 9 | 345 | 16.1 | 29.0 | 0.00 | 0.00 | 0.00 | 37 | 1022.4 |
| 20260506161555 | 10 | 293 | 14.5 | 24.1 | 0.00 | 0.00 | 0.00 | 37 | 1022.7 |
| 20260506160107 | 9 | 257 | 12.9 | 32.2 | 0.00 | 0.00 | 0.00 | 38 | 1022.6 |
| 20260506154555 | 9 | 273 | 11.3 | 19.3 | 0.00 | 0.00 | 0.00 | 40 | 1022.5 |
| 20260506153102 | 8 | 283 | 12.9 | 22.5 | 0.00 | 0.00 | 0.00 | 39 | 1022.8 |
| 20260506151558 | 8 | 279 | 9.7 | 20.9 | 0.00 | 0.00 | 0.00 | 43 | 1022.7 |
| 20260506150055 | 7 | 278 | 12.9 | 22.5 | 0.00 | 0.00 | 0.00 | 47 | 1022.7 |
| 20260506144555 | 7 | 253 | 9.7 | 19.3 | 0.00 | 0.00 | 0.00 | 52 | 1022.7 |
| 20260506143056 | 6 | 252 | 9.7 | 17.7 | 0.00 | 0.00 | 0.00 | 56 | 1023.0 |
| 20260506141611 | 5 | 240 | 8.0 | 12.9 | 0.00 | 0.00 | 0.00 | 60 | 1023.2 |
| 20260506140058 | 4 | 285 | 8.0 | 14.5 | 0.00 | 0.00 | 0.00 | 61 | 1023.2 |
| 20260506134552 | 3 | 316 | 4.8 | 9.7 | 0.00 | 0.00 | 0.00 | 65 | 1023.3 |
| 20260506133104 | 2 | 261 | 4.8 | 11.3 | 0.00 | 0.00 | 0.00 | 67 | 1023.1 |
| 20260506131556 | 1 | 285 | 4.8 | 12.9 | 0.00 | 0.00 | 0.00 | 72 | 1023.3 |
| 20260506130055 | 0 | 287 | 6.4 | 11.3 | 0.00 | 0.00 | 0.00 | 74 | 1023.1 |
| 20260506124553 | 0 | 275 | 4.8 | 8.0 | 0.00 | 0.00 | 0.00 | 73 | 1023.0 |
| 20260506123058 | 0 | 297 | 3.2 | 6.4 | 0.00 | 0.00 | 0.00 | 74 | 1022.8 |
| 20260506121607 | -1 | 283 | 0.0 | 4.8 | 0.00 | 0.00 | 0.00 | 76 | 1022.7 |
| 20260506120120 | -1 | 311 | 3.2 | 6.4 | 0.00 | 0.00 | 0.00 | 79 | 1022.5 |
| 20260506114552 | -2 | 285 | 1.6 | 3.2 | 0.00 | 0.00 | 0.00 | 80 | 1022.4 |
| 20260506113058 | -2 | 273 | 1.6 | 4.8 | 0.00 | 0.00 | 0.00 | 82 | 1022.0 |
| 20260506111554 | -2 | 293 | 0.0 | 1.6 | 0.00 | 0.00 | 0.00 | 80 | 1021.8 |
| 20260506110056 | -1 | 0 | 0.0 | 4.8 | 0.00 | 0.00 | 0.00 | 79 | 1021.5 |
| 20260506104554 | -2 | 0 | 0.0 | 1.6 | 0.00 | 0.00 | 0.00 | 80 | 1021.5 |
| 20260506103053 | 0 | 292 | 1.6 | 4.8 | 0.00 | 0.00 | 0.00 | 77 | 1021.6 |
| 20260506101550 | 0 | 289 | 3.2 | 4.8 | 0.00 | 0.00 | 0.00 | 76 | 1021.5 |
| 20260506100053 | 0 | 321 | 3.2 | 6.4 | 0.00 | 0.00 | 0.00 | 77 | 1021.3 |
| 20260506094553 | 0 | 299 | 3.2 | 8.0 | 0.00 | 0.00 | 0.00 | 76 | 1021.3 |